Location: *
(43.4667°N, 11.6833°E)
Time: 08:25:22
(UTC+00:00)

Cosmos 2333 Rocket - Pass Details

Date: 19 July 2019
Orbit: 842 x 860 km, 70.8° (Epoch: 21 August)

Event Time Altitude Azimuth Distance (km) Brightness Sun altitude
Exits shadow 19:44:52 10° 113° (ESE) 2,492 4.0 -9.1°
Reaches altitude 10° 19:45:00 10° 112° (ESE) 2,478 4.0 -9.1°
Maximum altitude 19:46:34 11° 96° (E) 2,397 4.1 -9.3°
Drops below altitude 10° 19:48:07 10° 79° (E) 2,479 4.3 -9.5°
Sets 19:52:36 0° 47° (NE) 3,417 5.3 -10.1°
